STARLINK-34507 (64437 NORAD) Tracking and Keplerian Element Data

This shows tracking and keplerian element data for the satellite.

Feedback or suggestion? Click here.




ElementValue
Catalog64437
NameSTARLINK-34507
Epoch Orbit2936
Epoch Day354.06641398
Epoch Year2025
RAAN275.0872
Inclination70.003
Eccentricity0.0013325
Argument of Perigee245.8731
Mean Anonmoly114.1036
Mean Motion15.00230207
Decay Rate0.0102503
L11 64437U 25129AB 25354.06641398 .01025030 00000+0 75682-1 0 9998
L22 64437 70.0030 275.0872 0013325 245.8731 114.1036 15.00230207 29367



Live tracking and technical data element details for STARLINK-34507 (NORAD 64437). STARLINK-34507 can be tracked NOW for your location showing map with azimuth and elevation plus other details from your city location.







IsCatalogInMostPopularTable: catalog: 64437, numindb: 4
Update: records affected: 1



GetName: 64437 STARLINK-34507

Hit Count: updated at: Mon, 09 Feb 2026 08:32:14 GMT